Vancouver, WA
on Tuesday, November 6, 2012

Tuesday
Previous Day Next Day
Daily Summary
 ActualAverageRecord
Temperature
Mean Temperature °F 49°F  
Max Temperature 59°F 56°F 67°F (1997)
Min Temperature 52°F 41°F 22°F (1895)
Degree Days
Heating Degree Days 9    
Month to date heating degree days 44  
Since 1 July heating degree days 363  
Cooling Degree Days 0    
Month to date cooling degree days 0  
Year to date cooling degree days 398  
Growing Degree Days4 (Base °F )  
Moisture
Dew Point 52°F   
Average Humidity 90    
Maximum Humidity 100    
Minimum Humidity 80    
Precipitation
Precipitation 0.10 in 0.19 in 2.90 in (2006)
Month to date precipitation 0.50 1.02  
Year to date precipitation 31.66 27.48  
Snow
Snow 0.00 in in in ()
Month to date snowfall 0.0  
Since 1 July snowfall 0.0  
Since 1 September snowfall 0.0  
Snow Depth 0.00 in   
Wind
Wind Speed 1 mph   
Max Wind Speed 8 mph   
Max Gust Speed 12 mph   
Visibility 6 miles   
Events Rain   

Key: T is trace of precipitation, MM is missing value
Source: NWS Daily Summary
Time(PST)TemperatureDew PointHumidity Pressure Visibility Wind DirectionWind SpeedGust SpeedPrecipitationEvents Conditions
12:02 AM 53.6°F 48.2°F 82% 30.13 in 10.0 miles Calm Calm - N/A   Overcast
12:53 AM 53.1°F 48.9°F 86% 30.13 in 9.0 miles Calm Calm - N/A   Overcast
1:53 AM 52.0°F 50.0°F 93% 30.12 in 5.0 miles Calm Calm - N/A   Overcast
2:24 AM 51.8°F 51.8°F 100% 30.11 in 4.0 miles Calm Calm - N/A   Overcast
2:53 AM 52.0°F 51.1°F 97% 30.11 in 3.0 miles Calm Calm - N/A   Overcast
3:11 AM 51.8°F 51.8°F 100% 30.10 in 3.0 miles Calm Calm - N/A   Overcast
3:40 AM 51.8°F 51.8°F 100% 30.09 in 2.5 miles Calm Calm - N/A   Overcast
3:53 AM 52.0°F 51.1°F 97% 30.09 in 2.5 miles Calm Calm - N/A   Overcast
4:37 AM 51.8°F 51.8°F 100% 30.09 in 3.0 miles Calm Calm - N/A   Overcast
4:53 AM 52.0°F 51.1°F 97% 30.09 in 3.0 miles Calm Calm - N/A   Overcast
5:23 AM 51.8°F 51.8°F 100% 30.07 in 2.5 miles Calm Calm - N/A   Overcast
5:31 AM 51.8°F 51.8°F 100% 30.07 in 3.0 miles Calm Calm - N/A   Overcast
5:53 AM 52.0°F 51.1°F 97% 30.07 in 5.0 miles Calm Calm - N/A   Overcast
6:50 AM 53.6°F 51.8°F 94% 30.06 in 1.8 miles Calm Calm - N/A   Overcast
6:53 AM 53.1°F 51.1°F 93% 30.06 in 1.8 miles Calm Calm - N/A   Overcast
7:19 AM 51.8°F 51.8°F 100% 30.06 in 1.0 miles Calm Calm - N/A   Overcast
7:40 AM 53.6°F 51.8°F 94% 30.07 in 2.0 miles Calm Calm - N/A   Overcast
7:50 AM 53.6°F 51.8°F 94% 30.07 in 4.0 miles Calm Calm - N/A   Overcast
7:53 AM 53.1°F 52.0°F 96% 30.07 in 4.0 miles Calm Calm - N/A   Overcast
8:10 AM 53.6°F 51.8°F 94% 30.07 in 6.0 miles Calm Calm - N/A   Overcast
8:53 AM 55.0°F 52.0°F 89% 30.07 in 10.0 miles Calm Calm - N/A   Overcast
9:53 AM 55.9°F 52.0°F 87% 30.06 in 10.0 miles Calm Calm - N/A   Overcast
10:11 AM 55.4°F 51.8°F 88% 30.06 in 10.0 miles Calm Calm - N/A   Overcast
10:45 AM 55.4°F 51.8°F 88% 30.07 in 10.0 miles South 4.6 mph - N/A   Overcast
10:53 AM 55.0°F 52.0°F 89% 30.07 in 10.0 miles SE 3.5 mph - N/A   Overcast
11:53 AM 55.9°F 52.0°F 87% 30.06 in 10.0 miles SSE 5.8 mph - N/A   Overcast
12:28 PM 55.4°F 51.8°F 88% 30.05 in 10.0 miles SSE 3.5 mph - N/A   Overcast
12:53 PM 55.9°F 52.0°F 87% 30.05 in 10.0 miles SSE 3.5 mph - N/A   Overcast
1:53 PM 57.0°F 52.0°F 83% 30.04 in 10.0 miles Calm Calm - N/A   Overcast
2:46 PM 57.2°F 51.8°F 82% 30.04 in 10.0 miles Calm Calm - N/A   Overcast
2:53 PM 57.9°F 52.0°F 81% 30.05 in 10.0 miles Calm Calm - N/A   Overcast
3:53 PM 57.9°F 53.1°F 84% 30.04 in 10.0 miles Calm Calm - N/A   Overcast
4:34 PM 57.2°F 53.6°F 88% 30.05 in 10.0 miles Calm Calm - N/A   Overcast
4:41 PM 57.2°F 53.6°F 88% 30.05 in 9.0 miles Calm Calm - 0.00 in Rain Light Rain
4:53 PM 57.0°F 53.1°F 87% 30.05 in 3.0 miles Calm Calm - 0.00 in Rain Light Rain
5:38 PM 55.4°F 53.6°F 94% 30.05 in 6.0 miles Calm Calm - 0.01 in   Overcast
5:53 PM 55.9°F 54.0°F 93% 30.05 in 3.0 miles Calm Calm - 0.01 in Rain Light Rain
5:57 PM 55.4°F 53.6°F 94% 30.05 in 3.0 miles Calm Calm - 0.00 in Rain Light Rain
6:17 PM 55.4°F 53.6°F 94% 30.04 in 4.0 miles Calm Calm - 0.01 in   Overcast
6:24 PM 55.4°F 53.6°F 94% 30.05 in 6.0 miles Calm Calm - 0.01 in   Overcast
6:53 PM 55.9°F 54.0°F 93% 30.05 in 5.0 miles Calm Calm - 0.01 in   Overcast
7:22 PM 55.4°F 53.6°F 94% 30.05 in 4.0 miles Calm Calm - 0.01 in Rain Light Rain
7:33 PM 55.4°F 53.6°F 94% 30.05 in 3.0 miles Calm Calm - 0.01 in Rain Light Rain
7:45 PM 55.4°F 53.6°F 94% 30.05 in 3.0 miles Calm Calm - 0.03 in Rain Light Rain
7:53 PM 55.0°F 54.0°F 96% 30.05 in 2.5 miles Calm Calm - 0.05 in Rain Rain
8:08 PM 55.4°F 53.6°F 94% 30.05 in 4.0 miles Calm Calm - 0.03 in Rain Light Rain
8:29 PM 55.4°F 53.6°F 94% 30.06 in 8.0 miles Calm Calm - 0.03 in   Overcast
8:41 PM 55.4°F 53.6°F 94% 30.06 in 9.0 miles Calm Calm - 0.03 in Rain Light Rain
8:48 PM 55.4°F 53.6°F 94% 30.06 in 10.0 miles NW 4.6 mph - 0.03 in Rain Light Rain
8:53 PM 55.9°F 53.1°F 90% 30.06 in 10.0 miles NW 3.5 mph - 0.03 in Rain Light Rain
9:00 PM 55.4°F 51.8°F 88% 30.07 in 10.0 miles WNW 5.8 mph - 0.00 in   Overcast
9:53 PM 55.0°F 51.1°F 86% 30.08 in 10.0 miles WNW 4.6 mph - 0.00 in   Overcast
10:53 PM 54.0°F 50.0°F 86% 30.10 in 10.0 miles NW 3.5 mph - N/A   Overcast
11:53 PM 53.1°F 48.9°F 86% 30.11 in 10.0 miles Calm Calm - N/A   Overcast
Moon Phase
Nov. 06 Nov. 06 Nov. 13 Nov. 20 Nov. 28
Sunrise:06:58 AM (PST) Moon Rise:11:38 PM (PST)11/6
Sunset:04:49 PM (PST) Moon Set:12:50 PM (PST)11/6

Copyright © 2014 The Weather Underground, Inc.